Location: Allentsteig
(48.6833°N, 15.3167°E)
Time: 21:56:22
(UTC+00:00)

USA 238 DEB - Pass Details

Date: 24 January 2021
Orbit: 995 x 1217 km, 63.4° (Epoch: 07 March)

Event Time Altitude Azimuth Distance (km) Brightness Sun altitude
Rises 04:26:34 0° 193° (SSW) 3,711 6.5 -21.5°
Reaches altitude 10° 04:29:14 10° 186° (S) 2,780 5.9 -21.0°
Maximum altitude 04:35:17 42° 118° (ESE) 1,446 4.9 -20.0°
Drops below altitude 10° 04:41:37 10° 50° (NE) 2,911 6.6 -19.0°
Sets 04:44:28 0° 44° (NE) 3,905 7.2 -18.5°
